Rock Hill, SC

11:01 AM EDT on March 29, 2017 (GMT -0400)
Rock Hill-York County-Bryant

Weather History for KUZA - February, 2014

Change the Weather History Date:

Tuesday, February 4, 2014

  Actual Average Record
Temperature  
Mean Temperature 42 °F -  
Max Temperature 46 °F 54 °F 78 °F (1957)
Min Temperature 37 °F 32 °F 12 °F (1970)
Degree Days  
Heating Degree Days 24    
Moisture  
Dew Point 37 °F    
Average Humidity 89    
Maximum Humidity 97    
Minimum Humidity 68    
Precipitation  
Precipitation 0.23 in - - ()
Sea Level Pressure  
Sea Level Pressure 30.23 in    
Wind  
Wind Speed 6 mph (NE)    
Max Wind Speed 9 mph    
Max Gust Speed -    
Visibility 4 miles    
Events Rain    
Averages and records for this station are not official NWS values.
T = Trace of Precipitation, MM = Missing Value Source: NWS Daily Summary

Daily Weather History Graph

Daily Weather History Graph

Search for Another Location

Airport or City:

Trip Planner

Search our weather history database for the weather conditions in past years. The results will help you decide how hot, cold, wet, or windy it might be!

Date:

Astronomy

Feb. 04, 2014 Rise Set
Actual Time 7:20 AM EST 5:56 PM EST
Civil Twilight 6:54 AM EST 6:22 PM EST
Nautical Twilight 6:24 AM EST 6:52 PM EST
Astronomical Twilight 5:54 AM EST 7:22 PM EST
Moon 10:11 AM EST (2/4) 11:33 PM EST (2/4)
Length of Visible Light 11h 28m
Length of Day
10h 35m
Waxing Crescent, 29% of the Moon is Illuminated
Feb 4
Waxing Crescent
Feb 6
First Quarter
Feb 14
Full
Feb 22
Last Quarter
Mar 1
New

Hourly Weather History & Observations

Time (EST) Temp. Windchill Dew Point Humidity Pressure Visibility Wind Dir Wind Speed Gust Speed Precip Events Conditions
12:54 AM 46.9 °F - 37.9 °F 71% 30.22 in 10.0 mi Variable 3.5 mph - N/A   Overcast
1:54 AM 46.0 °F 41.4 °F 37.0 °F 71% 30.22 in 10.0 mi ENE 9.2 mph - N/A   Overcast
2:54 AM 45.0 °F 41.2 °F 36.0 °F 71% 30.22 in 10.0 mi NE 6.9 mph - N/A   Overcast
3:54 AM 44.1 °F 40.1 °F 34.0 °F 68% 30.23 in 10.0 mi NE 6.9 mph - N/A   Overcast
4:54 AM 43.0 °F 37.7 °F 33.1 °F 68% 30.24 in 10.0 mi ENE 9.2 mph - N/A   Overcast
5:54 AM 41.0 °F 35.2 °F 33.1 °F 73% 30.28 in 10.0 mi ENE 9.2 mph - N/A   Overcast
6:20 AM 41.0 °F 37.1 °F 33.1 °F 73% 30.28 in 10.0 mi NE 5.8 mph - N/A   Overcast
6:54 AM 39.9 °F 35.1 °F 33.1 °F 77% 30.29 in 10.0 mi ENE 6.9 mph - N/A   Overcast
7:54 AM 39.9 °F 35.1 °F 34.0 °F 79% 30.32 in 10.0 mi NE 6.9 mph - N/A   Overcast
8:54 AM 39.0 °F 34.8 °F 34.0 °F 82% 30.34 in 9.0 mi NE 5.8 mph - N/A   Overcast
9:38 AM 39.0 °F 34.0 °F 35.1 °F 86% 30.35 in 1.8 mi NE 6.9 mph - N/A   Overcast
9:54 AM 39.0 °F 34.0 °F 36.0 °F 89% 30.35 in 1.2 mi Variable 6.9 mph - 0.00 in Rain Light Rain
10:19 AM 39.0 °F 34.8 °F 37.0 °F 93% 30.34 in 1.5 mi Variable 5.8 mph - 0.00 in   Overcast
10:54 AM 39.0 °F 32.8 °F 37.0 °F 93% 30.35 in 1.5 mi NNE 9.2 mph - 0.00 in Rain Light Rain
11:54 AM 39.0 °F 34.8 °F 37.0 °F 93% 30.33 in 1.0 mi Variable 5.8 mph - 0.03 in Rain Light Rain
12:42 PM 39.0 °F 33.4 °F 37.0 °F 93% 30.28 in 2.5 mi ENE 8.1 mph - 0.04 in Rain Light Rain
12:49 PM 39.2 °F 37.0 °F 37.4 °F 93% 30.28 in 4.0 mi Variable 3.5 mph - 0.04 in Rain Light Rain
12:54 PM 39.9 °F 37.8 °F 37.9 °F 93% 30.29 in 4.0 mi ENE 3.5 mph - 0.04 in Rain Light Rain
1:11 PM 39.9 °F 35.1 °F 37.9 °F 93% 30.26 in 2.5 mi East 6.9 mph - 0.00 in Rain Light Rain
1:24 PM 39.0 °F 34.8 °F 37.0 °F 93% 30.25 in 1.8 mi NE 5.8 mph - 0.00 in Rain Light Rain
1:31 PM 39.0 °F 34.0 °F 37.0 °F 93% 30.24 in 3.0 mi NE 6.9 mph - 0.00 in Rain Light Rain
1:54 PM 39.0 °F 36.8 °F 37.0 °F 93% 30.25 in 2.5 mi Variable 3.5 mph - 0.01 in   Overcast
2:06 PM 39.0 °F 36.8 °F 37.0 °F 93% 30.23 in 3.0 mi ENE 3.5 mph - 0.00 in Rain Light Rain
2:13 PM 39.9 °F 37.8 °F 37.9 °F 93% 30.23 in 2.0 mi East 3.5 mph - 0.00 in Rain Light Rain
2:20 PM 39.0 °F 33.4 °F 37.9 °F 96% 30.22 in 1.2 mi East 8.1 mph - 0.02 in Rain Rain
2:54 PM 39.0 °F 35.7 °F 37.0 °F 93% 30.23 in 1.5 mi NE 4.6 mph - 0.09 in Rain Light Rain
3:04 PM 39.0 °F 36.8 °F 37.9 °F 96% 30.22 in 3.0 mi Variable 3.5 mph - 0.00 in Rain Light Rain
3:54 PM 39.9 °F 36.7 °F 37.9 °F 93% 30.23 in 7.0 mi NNE 4.6 mph - 0.01 in   Overcast
4:54 PM 39.0 °F 35.7 °F 37.9 °F 96% 30.22 in 6.0 mi NE 4.6 mph - 0.00 in Rain Light Rain
5:26 PM 39.0 °F 35.7 °F 37.0 °F 93% 30.19 in 3.0 mi NE 4.6 mph - 0.01 in Rain Light Rain
5:31 PM 39.0 °F 35.7 °F 37.0 °F 93% 30.19 in 2.5 mi ENE 4.6 mph - 0.01 in Rain Light Rain
5:42 PM 39.0 °F - 37.0 °F 93% 30.19 in 4.0 mi Calm Calm - 0.01 in Rain Light Rain
5:54 PM 39.0 °F 36.8 °F 37.0 °F 93% 30.21 in 3.0 mi Variable 3.5 mph - 0.02 in Rain Light Rain
6:54 PM 39.0 °F 35.7 °F 37.0 °F 93% 30.19 in 8.0 mi ENE 4.6 mph - 0.01 in   Overcast
7:54 PM 39.0 °F 35.7 °F 37.0 °F 93% 30.18 in 4.0 mi Variable 4.6 mph - N/A   Overcast
8:07 PM 39.0 °F 35.7 °F 37.9 °F 96% 30.16 in 2.0 mi Variable 4.6 mph - N/A   Overcast
8:33 PM 39.0 °F 35.7 °F 37.0 °F 93% 30.15 in 2.0 mi Variable 4.6 mph - N/A   Mist
8:54 PM 39.0 °F 36.8 °F 37.9 °F 96% 30.18 in 2.5 mi ENE 3.5 mph - N/A   Overcast
9:15 PM 39.0 °F - 37.0 °F 93% 30.15 in 1.8 mi Calm Calm - 0.00 in   Overcast
9:54 PM 39.0 °F 36.8 °F 37.0 °F 93% 30.15 in 1.5 mi Variable 3.5 mph - 0.00 in   Overcast
10:12 PM 37.9 °F 34.4 °F 37.0 °F 97% 30.13 in 2.5 mi East 4.6 mph - 0.01 in Rain Light Rain
10:54 PM 37.9 °F 34.4 °F 37.0 °F 97% 30.15 in 2.5 mi NNE 4.6 mph - 0.02 in   Overcast
11:24 PM 37.9 °F 34.4 °F 37.0 °F 97% 30.11 in 4.0 mi East 4.6 mph - N/A   Overcast
11:33 PM 37.9 °F - 37.0 °F 97% 30.11 in 2.5 mi Calm Calm - N/A   Overcast
11:54 PM 37.9 °F 35.5 °F 37.0 °F 97% 30.12 in 2.5 mi NE 3.5 mph - N/A   Overcast